Temp
81 83 82 73 75 77 69 65 67 70 73 79 73 75 76 77 79 79 80 80 80 80 78 78 78 78 78 76 75 76 74 70
81 82 81 81 79 73 72 60 59 67 66 72 75 75 76 77 76 78 80 79 79 80 78 79 80 80 79 77 75 75 73 70
79 76 75 77 76 70 73 69 65 63 69 77 75 77 76 75 77 78 80 80 80 79 78 78 79 79 78 78 78 76 72 73
73 77 78 79 74 75 71 64 65 66 70 78 75 75 78 76 77 79 80 81 80 80 79 77 77 77 77 77 77 78 77 75
71 77 79 76 75 73 73 73 65 65 71 75 75 74 74 76 77 78 79 80 82 81 79 78 77 76 76 77 77 79 78 79
69 70 74 72 73 74 74 69 70 70 73 78 74 72 74 74 76 78 78 78 79 79 79 79 77 77 76 76 77 77 77 77
71 73 72 73 73 73 70 72 68 70 68 74 72 72 74 75 76 77 77 78 78 79 78 79 79 79 78 79 78 77 75 75
70 72 72 70 74 74 72 71 70 71 71 71 72 73 74 75 76 75 76 77 78 79 79 78 78 79 79 77 77 78 77 76
67 67 69 67 73 73 72 71 71 70 72 72 71 72 74 74 76 75 76 77 78 79 79 79 79 79 77 78 79 78 77 77
68 66 57 73 74 75 73 71 72 70 70 72 72 73 74 77 77 76 77 78 78 80 81 80 81 80 79 79 79 78 77 77
64 65 65 68 71 72 72 72 73 72 71 72 73 74 73 77 79 79 79 80 80 81 81 78 79 80 79 78 77 78 77 77
61 60 58 72 76 79 77 68 75 75 72 72 73 69 76 78 80 80 81 80 80 81 81 81 80 80 79 79 78 77 78 77
63 63 68 72 75 79 64 70 75 76 75 73 71 76 76 78 78 79 79 80 81 79 79 80 79 78 78 78 78 78 78 77
62 60 59 72 73 70 74 72 76 75 75 75 77 76 76 77 77 79 78 79 80 79 79 79 78 76 76 76 76 76 76 76
66 67 68 72 71 75 75 76 75 76 75 76 75 76 77 78 79 79 78 78 78 75 75 76 75 74 73 74 74 75 75 75
64 68 70 72 73 75 77 77 77 79 79 79 78 78 78 78 77 76 77 75 75 75 74 74 75 74 73 73 74 73 73 74
65 67 70 73 74 76 76 78 79 79 79 79 78 78 77 76 75 75 73 73 74 72 72 72 73 72 74 73 73 72 72 73
68 73 72 73 75 76 76 76 77 77 76 77 77 75 75 75 74 72 73 72 72 72 72 72 72 72 72 72 72 71 71 73
72 72 73 75 77 77 77 77 77 76 77 75 76 76 75 74 74 68 72 72 70 70 70 69 69 69 71 71 70 69 69 71
MSLP
1005.99 1005.85 1006.18 1006.83 1006.87 1007.14 1007.05 1008.13 1007.57 1007.39 1007.08 1006.92 1007.88 1008.38 1008.89 1009.03 1008.97 1009.10 1009.27 1009.25 1009.09 1009.25 1009.73 1010.16 1010.38 1010.78 1011.26 1011.65 1012.14 1012.57 1012.52 1013.02
1005.87 1006.09 1006.42 1006.22 1006.86 1007.12 1007.07 1007.19 1007.14 1007.18 1007.13 1006.83 1007.43 1008.17 1008.76 1009.08 1009.22 1009.31 1009.25 1009.22 1009.15 1009.27 1009.82 1010.35 1010.59 1011.03 1011.29 1011.71 1012.14 1012.46 1012.91 1013.37
1006.03 1006.22 1006.39 1006.58 1006.69 1007.38 1007.43 1007.60 1007.11 1007.04 1006.75 1007.05 1007.52 1008.31 1008.81 1009.32 1009.34 1009.26 1009.21 1009.27 1009.31 1009.47 1010.02 1010.40 1010.78 1011.05 1011.38 1011.67 1012.13 1012.40 1012.91 1013.47
1006.50 1007.02 1007.13 1006.67 1006.97 1007.13 1007.05 1007.64 1007.97 1007.76 1007.03 1007.35 1008.30 1008.95 1009.25 1009.48 1009.51 1009.44 1009.45 1009.63 1009.75 1009.75 1010.02 1010.49 1010.80 1011.20 1011.51 1011.72 1011.83 1011.93 1012.40 1012.79
1006.75 1007.13 1007.15 1007.01 1007.37 1007.67 1007.70 1007.81 1007.73 1007.49 1007.06 1007.87 1008.60 1009.29 1009.83 1009.87 1009.79 1009.65 1009.67 1009.82 1009.76 1009.74 1010.00 1010.30 1010.77 1011.26 1011.70 1011.82 1011.76 1011.55 1011.66 1011.88
1006.62 1007.01 1007.39 1007.43 1007.53 1007.72 1007.68 1007.52 1007.36 1007.43 1007.24 1007.68 1008.83 1009.46 1009.88 1010.10 1010.02 1009.86 1009.88 1010.11 1010.11 1010.04 1010.34 1010.52 1010.62 1010.89 1011.27 1011.51 1011.44 1011.38 1011.38 1011.35
1007.47 1007.52 1007.66 1007.61 1007.60 1007.69 1007.72 1007.69 1007.71 1007.73 1008.07 1008.33 1009.27 1009.72 1009.97 1010.24 1010.23 1010.08 1010.13 1010.36 1010.52 1010.46 1010.54 1010.81 1010.89 1010.95 1011.18 1011.16 1011.18 1011.21 1011.25 1011.33
1007.87 1007.99 1007.89 1007.69 1007.56 1007.48 1007.73 1007.91 1008.03 1008.21 1008.29 1009.24 1009.87 1010.11 1010.22 1010.34 1010.41 1010.33 1010.41 1010.64 1010.80 1010.74 1010.84 1010.97 1011.11 1011.27 1011.39 1011.46 1011.32 1011.27 1011.12 1011.14
1007.97 1008.39 1008.14 1007.76 1007.25 1007.46 1007.67 1008.03 1008.22 1008.15 1008.83 1009.52 1009.87 1010.11 1010.35 1010.53 1010.53 1010.49 1010.73 1010.87 1010.92 1010.87 1010.96 1011.22 1011.42 1011.59 1011.61 1011.65 1011.59 1011.47 1011.45 1011.43
1008.09 1008.50 1008.11 1007.34 1007.73 1007.71 1007.69 1008.02 1008.42 1008.84 1009.27 1009.67 1010.13 1010.49 1010.67 1010.63 1010.47 1010.63 1010.85 1010.91 1010.99 1011.06 1011.16 1011.39 1011.59 1011.79 1011.89 1011.84 1011.79 1011.71 1011.66 1011.60
1008.64 1008.13 1008.19 1007.82 1007.66 1007.61 1007.63 1007.84 1008.35 1008.78 1009.46 1009.95 1010.38 1010.53 1010.59 1010.60 1010.53 1010.61 1010.81 1010.99 1011.21 1011.27 1011.29 1011.61 1011.69 1011.81 1011.76 1011.73 1011.75 1011.75 1011.72 1011.60
1009.13 1008.32 1007.59 1006.96 1007.22 1007.61 1007.93 1007.71 1008.11 1008.71 1009.30 1009.78 1010.27 1010.03 1009.88 1010.22 1010.46 1010.63 1010.87 1011.07 1011.10 1011.16 1011.29 1011.37 1011.55 1011.68 1011.58 1011.45 1011.50 1011.44 1011.36 1011.35
1008.79 1008.40 1007.71 1007.76 1007.85 1007.92 1008.15 1008.15 1007.99 1008.49 1009.07 1009.71 1009.95 1009.90 1010.10 1010.22 1010.54 1010.81 1010.88 1010.90 1011.01 1011.27 1011.32 1011.40 1011.66 1011.67 1011.50 1011.36 1011.33 1011.35 1011.30 1011.31
1009.23 1008.82 1008.53 1008.44 1008.49 1008.16 1008.21 1008.28 1008.37 1008.78 1009.13 1009.46 1009.71 1009.98 1010.23 1010.42 1010.62 1010.74 1010.89 1010.95 1011.06 1011.20 1011.31 1011.51 1011.63 1011.63 1011.36 1011.19 1011.35 1011.27 1011.17 1011.01
1009.49 1008.80 1009.11 1009.03 1008.85 1008.64 1008.61 1008.43 1008.71 1008.89 1009.23 1009.49 1009.77 1010.00 1010.23 1010.37 1010.61 1010.76 1010.98 1011.17 1011.35 1011.53 1011.49 1011.63 1011.79 1011.73 1011.43 1011.27 1011.19 1010.98 1010.80 1010.61
1009.74 1009.26 1009.21 1009.23 1009.24 1009.11 1008.96 1008.88 1009.10 1009.23 1009.36 1009.53 1009.64 1009.94 1010.14 1010.43 1010.65 1010.90 1011.13 1011.36 1011.49 1011.48 1011.42 1011.45 1011.67 1011.73 1011.63 1011.38 1011.20 1010.91 1010.64 1010.31
1009.44 1009.47 1009.45 1009.23 1009.22 1009.16 1009.26 1009.35 1009.43 1009.57 1009.71 1009.85 1010.07 1010.27 1010.57 1010.67 1010.85 1011.05 1011.25 1011.36 1011.47 1011.57 1011.59 1011.61 1011.68 1011.47 1011.28 1011.21 1011.14 1010.84 1010.49 1010.08
1008.52 1008.63 1008.71 1008.68 1009.09 1009.38 1009.43 1009.55 1009.74 1009.87 1010.11 1010.37 1010.54 1010.66 1010.86 1010.86 1011.12 1011.31 1011.39 1011.56 1011.61 1011.60 1011.57 1011.54 1011.42 1011.05 1010.84 1010.78 1010.62 1010.36 1009.96 1009.54
1008.96 1008.97 1009.03 1008.98 1009.24 1009.42 1009.54 1009.73 1009.95 1010.12 1010.32 1010.48 1010.66 1010.88 1011.03 1011.13 1011.36 1011.56 1011.68 1011.69 1011.66 1011.57 1011.60 1011.56 1011.31 1010.96 1010.78 1010.53 1010.21 1009.78 1009.30 1008.85
Wind_Speed
1 2 3 6 4 3 6 1 4 2 4 3 1 4 3 3 5 1 6 9 9 5 4 5 6 7 7 7 5 8 9 2
4 2 11 4 9 4 1 3 3 2 5 5 3 7 7 6 5 5 6 5 3 1 4 5 5 6 6 5 5 3 6 6
2 4 1 4 4 6 3 3 3 3 3 2 4 5 9 6 5 6 6 6 4 4 4 6 5 6 6 6 6 7 7 8
4 2 3 2 4 1 3 4 1 2 4 2 4 2 7 5 5 5 7 7 6 6 6 5 5 4 4 4 5 7 7 8
3 5 2 3 3 3 4 1 4 4 4 3 5 7 3 4 5 7 9 10 11 11 8 4 3 3 3 4 4 4 5 7
3 3 3 3 2 3 5 4 3 8 11 5 5 6 4 4 6 8 9 9 10 11 12 10 8 6 4 3 5 6 4 3
3 7 3 3 5 6 8 4 7 2 5 8 7 3 5 4 6 9 10 10 10 11 10 11 12 11 9 7 3 1 2 2
4 3 3 5 6 7 5 4 8 6 6 2 1 3 6 7 6 8 9 9 9 9 10 11 11 11 10 11 10 8 8 7
3 2 1 8 8 7 3 3 2 4 2 2 3 5 6 6 6 8 7 6 6 7 8 8 8 7 8 8 8 8 9 8
2 4 7 3 4 6 6 3 5 3 4 4 5 4 4 4 7 7 5 4 3 4 6 6 5 6 6 6 6 6 6 6
4 7 3 2 5 6 6 5 6 9 9 8 6 5 4 5 5 5 4 3 1 1 1 1 1 2 3 3 3 3 4 4
4 5 7 1 7 4 2 7 11 9 12 11 6 4 1 8 7 5 3 3 3 3 4 3 3 3 3 2 2 2 2 1
6 7 3 0 3 6 8 2 11 11 12 12 7 3 3 5 5 3 5 6 3 3 5 5 3 4 5 5 4 4 4 4
3 6 8 2 5 7 3 2 5 6 8 10 5 1 1 3 4 5 4 2 1 1 3 4 4 4 5 7 5 4 5 5
5 2 2 3 4 5 3 4 3 4 4 4 3 1 2 3 4 4 4 3 3 4 6 4 3 4 7 8 7 7 6 7
3 4 3 1 2 3 4 4 5 5 5 3 1 1 4 5 5 4 2 3 4 4 5 6 6 6 6 8 8 8 9 9
3 4 4 5 4 5 6 6 6 4 2 0 2 4 5 6 6 6 6 4 4 5 6 8 9 10 10 10 9 10 11 12
6 5 3 4 8 6 7 5 4 4 3 1 2 3 4 6 4 3 3 4 6 8 8 10 12 13 13 12 12 12 12 10
3 2 3 3 6 5 5 5 4 3 2 2 3 5 4 4 3 3 5 7 8 9 9 10 12 14 13 13 13 14 14 13
Wind_Direction
336 167 226 142 177 58 115 118 251 350 258 222 173 216 188 94 112 104 338 327 322 316 212 188 185 193 203 200 224 236 225 150
135 152 60 265 133 174 133 215 270 189 282 266 48 102 143 107 43 349 337 339 342 113 175 194 193 181 198 197 214 186 127 189
205 20 92 149 131 63 95 323 262 272 265 196 236 118 123 99 32 3 27 55 71 103 137 173 200 210 221 227 205 172 169 183
91 333 299 43 93 129 267 172 90 325 276 195 340 100 111 65 30 53 49 68 93 90 109 144 180 201 238 248 223 213 200 195
180 154 127 53 56 79 105 120 204 278 282 19 96 121 75 24 58 79 61 58 71 70 57 67 130 170 205 257 272 246 214 195
268 83 107 170 224 204 258 238 245 242 286 314 17 140 110 65 79 84 67 53 51 58 57 56 59 58 92 179 230 253 257 260
133 136 172 198 241 219 233 255 248 77 268 313 344 172 127 114 98 83 71 62 60 59 59 62 64 64 63 62 59 92 82 77
187 176 195 242 240 240 216 225 249 271 283 332 76 148 134 132 115 89 80 80 79 75 71 65 61 60 62 65 73 87 88 81
219 340 244 263 255 210 217 223 268 255 41 154 123 141 137 132 121 103 100 92 82 74 70 71 69 68 71 79 79 79 76 73
258 160 241 16 301 246 251 224 218 240 180 154 131 119 137 147 127 119 125 111 79 66 80 67 63 79 89 84 85 85 77 73
237 234 341 212 203 175 202 212 194 162 157 147 139 158 154 169 167 159 164 146 175 169 115 147 149 136 121 118 117 123 96 78
155 232 231 253 180 169 180 256 180 175 170 166 165 201 183 186 193 191 196 238 263 266 257 258 266 252 273 271 225 229 279 56
204 239 260 286 116 146 203 41 170 182 176 175 195 237 9 184 210 279 298 299 292 259 271 286 294 274 285 289 308 295 243 251
174 213 245 117 136 210 27 75 151 166 171 185 197 80 177 192 239 261 286 303 14 322 324 355 1 324 314 313 345 311 283 264
242 351 27 285 287 318 224 158 136 137 123 140 168 187 190 217 240 285 297 322 345 323 314 348 354 333 317 324 319 307 285 272
213 182 266 251 231 226 186 119 118 114 114 135 98 321 304 305 306 306 286 315 323 330 345 345 355 335 310 310 313 301 289 276
235 245 266 229 219 153 129 134 127 102 105 302 299 292 312 306 306 314 319 335 1 344 331 325 328 317 319 318 310 289 281 277
257 210 219 199 166 162 159 158 154 167 156 159 251 277 289 289 298 302 317 327 317 313 312 319 319 313 316 314 306 295 284 265
279 214 183 169 162 176 186 174 165 174 204 270 291 299 289 295 302 302 284 288 292 302 308 306 301 299 302 301 299 291 284 280